CAPE
0 0 0 0 0 0 0 0 0 0 0 0 0 0 0 0 0 0 0 0 0 0 0 0 0 0 0 0 0 0 0 0 0 0 0 0 0 0 0 0 0 0 0
0 0 0 0 0 0 0 0 0 0 0 0 0 0 0 0 0 0 0 0 0 0 0 0 0 0 0 0 0 0 0 0 0 0 0 0 0 0 0 0 0 0 0
0 0 0 0 0 0 0 0 0 0 0 0 0 0 0 0 0 0 0 0 0 0 0 0 0 0 0 0 0 0 0 0 0 0 0 8 3 0 0 0 0 0 0
0 0 0 0 0 0 0 0 0 0 0 0 0 0 0 0 0 0 0 0 0 0 0 0 0 0 0 0 0 0 0 0 0 0 0 0 1 3 0 0 0 0 0
0 0 0 0 0 0 0 0 0 0 0 0 0 0 0 0 0 0 0 0 0 0 0 0 0 0 0 0 0 0 0 0 0 0 0 0 0 0 0 2 0 0 0
0 0 0 0 0 0 0 0 0 0 0 0 0 0 0 0 0 0 0 0 0 0 0 0 0 0 0 0 0 0 0 0 0 0 0 0 0 0 5 1 0 0 0
0 0 0 0 0 0 0 0 0 0 0 0 0 0 0 0 0 0 0 0 0 0 0 0 0 0 0 0 0 0 0 0 0 0 0 0 0 0 0 12 2 4 0
0 0 0 0 0 0 0 0 0 0 0 0 0 0 0 0 0 0 0 0 0 0 0 0 0 0 0 0 0 0 0 0 0 0 0 0 0 0 1 8 8 0 0
0 0 0 0 0 0 0 0 0 0 0 0 0 0 0 0 0 0 0 0 0 0 0 0 0 0 0 0 0 0 0 0 0 0 0 0 0 0 1 2 10 8 1
0 0 0 0 0 0 0 0 0 0 0 0 0 0 0 0 0 0 0 0 0 0 0 0 0 0 0 0 0 0 0 0 0 0 0 0 0 0 1 3 3 5 3
0 0 0 0 0 0 0 0 0 0 0 0 0 0 0 0 0 0 0 0 0 0 0 0 0 0 0 0 0 0 0 0 0 0 0 0 0 0 1 2 4 7 4
0 0 0 0 0 0 0 0 0 0 0 0 0 0 0 0 0 0 0 0 0 0 0 0 0 0 0 0 0 0 0 0 0 0 0 6 10 12 3 1 0 1 3
0 0 0 0 0 0 0 0 0 0 0 0 0 0 0 0 0 0 0 0 0 0 0 0 0 0 0 0 0 0 0 0 0 0 1 1 1 1 0 1 0 8 3
0 0 0 0 0 0 0 0 0 0 0 0 0 0 0 0 0 0 0 0 0 0 0 0 0 0 0 0 0 0 0 0 0 0 0 0 1 0 0 0 0 0 0
0 0 0 0 0 0 0 0 0 0 0 0 0 0 0 0 0 0 0 0 0 0 0 0 0 0 0 0 1 1 0 0 0 0 0 0 5 27 15 10 0 0 0
0 0 0 0 0 0 0 0 0 0 0 0 0 0 0 0 0 0 0 0 0 0 0 0 0 0 0 4 11 8 0 0 0 0 0 0 2 0 9 10 10 11 0
0 0 0 0 0 0 0 0 0 0 0 0 0 0 0 0 0 0 0 0 0 0 0 0 0 0 0 8 15 22 0 1 0 0 1 1 0 1 0 2 11 11 20
0 0 0 0 0 0 0 0 0 0 0 0 0 0 0 0 0 0 0 0 0 0 0 0 0 0 0 10 16 26 0 0 0 0 0 0 2 0 12 4 1 1 0
0 0 0 0 0 0 0 0 0 0 0 0 0 0 0 0 0 0 0 0 0 0 0 0 0 0 0 13 12 18 0 2 0 0 0 0 0 12 21 2 0 1 0
0 0 0 0 0 0 0 0 0 0 0 0 0 0 0 0 0 0 0 0 0 0 0 0 0 0 0 7 12 13 4 1 3 0 0 4 6 13 13 3 0 1 2
0 0 0 0 0 0 0 0 0 0 0 0 0 0 0 0 0 0 0 0 0 0 0 0 0 0 0 0 9 8 9 6 5 5 3 3 16 14 11 10 1 2 1
0 0 0 0 0 0 0 0 0 0 0 0 0 0 0 0 0 0 0 0 0 0 0 0 0 0 0 3 4 6 5 13 2 1 1 0 14 12 10 5 9 4 0
0 0 0 0 0 0 0 0 0 0 0 0 0 0 0 0 0 0 0 0 0 0 1 2 0 0 0 0 2 2 3 2 1 0 3 6 7 5 1 5 4 0 0
0 0 0 0 0 0 0 0 0 0 0 0 0 0 0 0 0 0 0 0 0 0 3 2 1 2 1 1 0 0 0 0 0 0 0 0 2 0 0 0 0 0 0
0 0 0 0 0 0 0 0 0 0 0 0 0 0 0 0 0 0 0 0 0 8 4 4 4 2 1 2 1 1 0 0 0 0 0 0 0 0 0 0 0 0 0
0 0 0 0 0 0 0 0 0 0 0 0 0 0 0 0 0 0 0 0 1 18 13 8 3 0 3 5 2 1 0 0 0 0 0 0 0 0 0 0 0 0 0
CIN
0 0 0 0 0 0 0 0 0 0 0 0 0 0 0 0 0 0 0 0 0 0 0 0 0 0 0 0 0 0 0 0 0 0 0 0 0 0 0 0 0 0 0
0 0 0 0 0 0 0 0 0 0 0 0 0 0 0 0 0 0 0 0 0 0 0 0 0 0 0 0 0 0 0 0 0 0 0 0 0 0 0 0 0 0 0
0 0 0 0 0 0 0 0 0 0 0 0 0 0 0 0 0 0 0 0 0 0 0 0 0 0 0 0 0 0 0 0 0 0 -4 0 -3 0 0 0 0 0 0
0 0 0 0 0 0 0 0 0 0 0 0 0 0 0 0 0 0 0 0 0 0 0 0 0 0 0 0 0 0 0 0 0 0 0 0 -2 -5 -3 0 0 0 0
0 0 0 0 0 0 0 0 0 0 0 0 0 0 0 0 0 0 0 0 0 0 0 0 0 0 0 0 0 0 0 0 0 0 0 0 0 0 -7 -1 0 0 0
0 0 0 0 0 0 0 0 0 0 0 0 0 0 0 0 0 0 0 0 0 0 0 0 0 0 0 0 0 0 0 0 0 0 0 0 0 0 0 -3 0 0 0
0 0 0 0 0 0 0 0 0 0 0 0 0 0 0 0 0 0 0 0 0 0 0 0 0 0 0 0 0 0 0 0 0 0 0 0 0 0 -1 0 -1 0 0
0 0 0 0 0 0 0 0 0 0 0 0 0 0 0 0 0 0 0 0 0 0 0 0 0 0 0 0 0 0 0 0 0 0 0 0 0 0 0 0 0 0 0
0 0 0 0 0 0 0 0 0 0 0 0 0 0 0 0 0 0 0 0 0 0 0 0 0 0 0 0 0 0 0 0 0 0 0 0 0 0 0 0 0 0 -1
0 0 0 0 0 0 0 0 0 0 0 0 0 0 0 0 0 0 0 0 0 0 0 0 0 0 0 0 0 0 0 0 0 0 0 0 0 0 0 0 0 0 0
0 0 0 0 0 0 0 0 0 0 0 0 0 0 0 0 0 0 0 0 0 0 0 0 0 0 0 0 0 0 0 0 0 0 0 0 0 0 0 0 0 0 0
0 0 0 0 0 0 0 0 0 0 0 0 0 0 0 0 0 0 0 0 0 0 0 0 0 0 0 0 0 0 0 0 0 0 0 0 0 0 0 -2 0 0 0
0 0 0 0 0 0 0 0 0 0 0 0 0 0 0 0 0 0 0 0 0 0 0 0 0 0 0 0 0 0 0 0 0 0 0 0 0 0 0 -1 0 0 0
0 0 0 0 0 0 0 0 0 0 0 0 0 0 0 0 0 0 0 0 0 0 0 0 0 0 0 0 0 0 0 0 0 0 0 0 0 0 0 0 0 0 0
0 0 0 0 0 0 0 0 0 0 0 0 0 0 0 0 0 0 0 0 0 0 0 0 0 0 0 0 -3 -5 0 0 0 0 0 0 0 0 0 0 -1 0 0
0 0 0 0 0 0 0 0 0 0 0 0 0 0 0 0 0 0 0 0 0 0 0 0 0 0 0 0 0 0 0 0 0 0 0 0 0 0 0 0 0 0 0
0 0 0 0 0 0 0 0 0 0 0 0 0 0 0 0 0 0 0 0 0 0 0 0 0 0 0 0 0 0 0 0 0 0 0 0 0 0 0 0 0 0 0
0 0 0 0 0 0 0 0 0 0 0 0 0 0 0 0 0 0 0 0 0 0 0 0 0 0 0 0 0 0 0 -1 -1 0 0 0 0 0 0 0 0 0 0
0 0 0 0 0 0 0 0 0 0 0 0 0 0 0 0 0 0 0 0 0 0 0 0 0 0 0 0 0 0 -1 0 -1 0 0 0 0 0 0 0 0 0 0
0 0 0 0 0 0 0 0 0 0 0 0 0 0 0 0 0 0 0 0 0 0 0 0 0 0 0 0 0 0 0 0 0 0 0 0 0 0 0 0 0 0 0
0 0 0 0 0 0 0 0 0 0 0 0 0 0 0 0 0 0 0 0 0 0 0 0 0 0 -1 -1 0 0 0 0 0 0 0 0 0 0 0 0 0 0 0
0 0 0 0 0 0 0 0 0 0 0 0 0 0 0 0 0 0 0 0 0 0 0 0 0 0 0 0 0 0 0 0 0 0 0 0 0 0 0 0 0 0 0
0 0 0 0 0 0 0 0 0 0 0 0 0 0 0 0 0 0 0 0 0 0 0 0 -1 0 0 0 0 0 0 0 0 0 0 0 0 0 0 0 0 0 0
0 0 0 0 0 0 0 0 0 0 0 0 0 0 0 0 0 0 0 0 0 -2 0 0 0 0 0 -1 0 0 0 0 -1 0 0 0 0 0 0 0 0 0 0
0 0 0 0 0 0 0 0 0 0 0 0 0 0 0 0 0 0 0 0 0 -1 0 -1 0 -1 -2 -2 -2 -1 0 0 0 0 0 0 0 0 0 0 0 0 0
0 0 0 0 0 0 0 0 0 0 0 0 0 0 0 0 0 0 0 0 -1 0 0 0 -1 -1 -1 0 0 0 0 0 0 0 0 0 0 0 0 0 0 0 0
Wind_Speed
12 12 12 11 11 10 10 8 7 7 5 4 3 4 3 3 4 6 7 7 5 5 4 3 5 5 4 4 4 3 3 3 3 3 8 4 4 3 5 3 4 5 5
10 12 11 9 8 9 7 7 6 5 6 4 3 3 3 3 2 3 6 7 7 6 3 5 5 5 4 6 5 3 3 2 2 2 3 5 5 3 10 2 4 5 4
12 10 10 5 6 8 6 5 5 6 7 8 5 4 3 3 4 4 4 5 6 6 6 5 4 5 3 4 4 3 3 2 3 1 1 4 2 7 3 9 3 5 3
8 10 7 5 6 4 2 5 6 6 7 8 5 6 3 3 2 3 3 5 6 6 5 6 5 5 4 5 4 2 2 1 3 2 2 4 4 3 6 2 4 5 5
7 9 7 6 4 2 4 4 5 8 6 7 6 4 4 2 3 3 6 6 6 6 6 6 6 6 4 4 5 5 4 2 2 3 2 3 4 5 6 10 6 3 4
8 6 5 6 3 3 5 5 6 6 6 6 6 6 5 5 5 5 4 5 4 5 6 6 5 6 5 5 5 5 5 5 4 3 4 4 6 5 6 6 9 9 5
7 7 7 4 4 6 4 4 6 5 4 5 6 6 6 5 5 5 4 6 4 4 6 5 6 5 5 6 5 5 6 5 4 5 6 6 7 7 6 9 8 9 5
6 6 6 5 4 4 5 5 5 4 5 5 6 5 6 3 3 4 4 5 4 5 6 7 6 7 7 6 5 4 4 5 5 8 9 7 7 6 7 7 7 7 4
7 7 6 4 4 4 4 4 4 4 5 5 4 5 5 6 5 7 5 4 6 6 7 8 7 8 7 6 6 3 5 6 7 9 9 7 7 5 7 7 8 6 6
7 6 5 4 2 4 4 5 5 4 3 4 4 4 5 6 6 6 7 7 7 7 8 8 8 7 7 5 4 4 7 8 9 7 9 9 7 7 6 6 6 7 5
8 6 5 3 4 5 5 4 5 5 5 5 4 6 6 6 7 6 7 7 7 8 9 8 8 7 6 5 5 6 9 11 11 10 9 11 10 6 6 6 6 6 5
7 6 5 3 4 4 4 5 5 6 3 3 5 6 6 6 7 7 9 8 8 8 9 9 8 7 5 6 6 9 10 12 12 11 10 11 8 9 7 6 8 8 7
8 6 4 4 3 4 4 6 5 4 4 4 6 6 7 7 7 8 8 9 9 9 10 9 9 8 6 6 6 9 11 11 11 11 11 11 11 9 7 8 6 7 6
9 6 5 3 4 4 5 5 5 5 4 5 5 6 7 6 7 7 8 9 9 9 9 9 9 9 11 8 11 12 12 12 10 11 10 10 10 10 11 5 6 6 7
9 7 5 4 5 4 6 5 5 5 4 5 6 6 6 6 7 7 8 8 9 9 9 9 10 10 10 8 14 14 12 12 12 11 11 9 13 20 16 9 8 7 7
10 7 6 6 5 4 6 5 4 4 4 5 6 6 6 6 6 7 7 7 9 9 9 10 10 11 9 22 25 21 12 12 12 11 11 10 16 15 21 22 22 17 9
7 6 6 5 3 6 5 5 4 3 5 6 6 6 5 5 6 6 6 8 9 8 9 10 10 12 11 25 27 28 11 11 11 11 11 11 9 16 12 18 21 20 21
7 6 5 4 5 5 5 4 4 5 6 6 6 6 5 5 6 6 7 7 6 7 8 9 11 11 10 25 28 27 13 11 13 11 11 11 12 13 18 14 11 10 9
6 5 4 4 6 5 3 5 6 6 6 6 6 6 5 6 6 7 8 6 7 8 9 10 11 11 12 25 28 21 13 14 13 11 11 12 13 23 24 13 11 10 6
6 6 6 5 6 3 3 6 5 6 6 6 6 6 6 6 7 7 7 5 5 9 9 11 11 16 13 23 29 23 11 13 11 12 12 20 21 26 24 13 10 9 8
8 6 7 6 4 3 5 6 5 6 5 5 6 6 7 6 6 6 5 6 9 8 10 11 11 12 15 16 30 30 13 11 11 10 11 11 27 26 25 22 12 12 10
7 7 7 5 4 5 5 6 6 4 5 5 6 7 7 6 6 6 6 6 9 10 12 12 11 10 13 23 26 29 28 25 11 12 10 12 27 26 24 17 24 20 11
7 5 7 6 5 5 5 6 5 5 5 6 7 7 7 7 7 6 6 6 8 9 11 11 11 12 12 13 28 26 29 26 14 12 19 26 26 24 17 24 24 14 9
7 5 6 6 5 5 5 3 3 2 5 6 6 6 6 7 7 5 5 4 8 10 10 12 12 12 13 14 14 12 13 21 17 16 13 14 17 15 14 14 14 10 9
5 5 6 5 3 3 5 5 5 5 5 5 5 6 5 6 6 6 5 6 5 11 10 10 10 11 12 15 23 21 14 15 16 13 11 12 14 14 14 13 12 11 11
6 6 5 6 3 5 4 4 5 5 5 5 5 5 5 5 5 5 6 12 14 16 20 22 15 9 21 28 30 30 27 30 26 13 13 13 14 13 13 12 13 11 14
Wind_Direction
96 80 70 72 78 65 63 50 45 22 24 17 10 16 14 7 22 14 5 357 349 6 15 343 338 342 339 316 319 306 325 317 337 314 332 298 313 203 353 355 330 352 2
89 84 78 60 65 75 60 44 42 26 30 29 13 24 13 14 13 359 7 3 5 10 356 347 334 339 332 337 338 346 313 285 351 318 290 333 334 316 329 319 329 357 342
116 109 92 82 71 63 55 59 49 43 36 30 28 10 17 13 4 353 350 345 4 4 353 344 336 329 335 326 315 322 347 303 297 332 296 335 334 321 322 313 296 334 317
112 116 110 88 87 80 67 62 52 42 42 31 37 45 35 11 318 305 311 343 356 349 350 345 346 338 336 344 315 332 267 261 293 323 226 236 224 259 308 275 285 289 303
149 124 128 125 93 102 66 56 50 42 35 45 49 45 23 325 303 331 350 344 334 339 336 341 332 331 334 316 297 304 312 274 238 204 264 256 246 235 255 284 290 270 261
125 121 119 110 129 70 54 42 46 46 39 46 43 43 24 350 359 343 340 327 316 312 325 328 321 313 313 303 295 293 283 272 251 253 251 241 272 266 255 259 274 284 265
144 133 123 131 84 61 50 58 63 51 35 40 34 22 17 15 357 335 313 324 315 304 305 313 311 302 295 295 296 286 283 274 258 267 279 277 263 257 256 268 271 273 279
136 135 150 134 99 82 69 61 65 44 30 32 24 15 14 352 331 315 312 304 292 293 292 301 300 293 292 292 299 291 288 284 278 279 286 278 271 255 252 254 260 282 247
143 153 151 129 93 92 73 85 77 38 39 43 24 6 353 351 330 325 315 296 298 303 303 302 298 296 293 295 312 314 308 296 285 289 283 273 269 253 258 258 251 264 277
145 153 142 118 100 84 84 87 66 65 69 46 13 355 338 333 332 326 323 316 311 308 308 308 307 306 304 326 357 319 303 298 303 295 292 288 276 268 263 262 261 255 255
156 142 127 101 70 78 97 78 64 71 62 24 358 360 346 341 336 331 324 322 312 322 323 317 313 318 334 11 336 315 310 313 308 304 298 293 288 276 263 258 255 260 248
131 121 117 109 76 78 77 71 60 71 51 17 11 5 356 345 345 336 331 329 328 330 331 332 336 340 358 338 322 314 310 313 313 307 301 300 299 295 274 258 255 245 234
116 115 128 94 61 78 64 66 62 62 44 30 17 0 352 355 344 338 331 337 341 339 341 345 344 337 327 320 310 307 307 309 311 305 301 301 300 294 288 278 271 269 240
123 135 124 88 75 58 82 74 61 50 35 29 12 0 352 353 349 338 343 348 342 343 344 342 340 340 327 307 332 324 320 311 311 305 299 294 293 291 285 287 261 261 260
137 144 120 89 57 49 75 70 60 43 16 31 7 353 354 4 355 346 347 339 345 344 339 339 340 339 336 335 336 337 324 323 316 309 303 297 297 308 306 296 280 243 244
143 126 109 99 59 68 87 76 55 21 21 21 357 351 2 5 351 341 337 340 344 342 338 341 340 335 337 339 341 343 336 324 317 312 312 307 307 299 297 295 288 274 250
117 113 110 95 79 96 102 81 45 19 24 11 345 352 359 358 347 336 339 343 340 333 336 332 334 332 326 344 345 346 337 325 321 318 313 311 309 313 299 294 287 274 261
118 113 117 104 91 98 88 82 46 37 24 357 343 348 357 349 340 336 341 334 330 333 333 329 331 330 328 343 351 350 338 333 333 323 323 315 321 316 327 320 303 283 253
115 126 126 107 106 100 104 80 47 24 10 348 346 344 356 345 337 340 336 326 331 335 336 333 331 334 340 346 356 356 344 339 336 334 331 337 329 331 339 330 319 316 291
121 112 107 102 99 68 70 68 35 19 2 348 344 348 354 346 341 336 334 318 321 339 334 336 342 343 343 349 358 3 346 342 338 334 337 340 340 343 343 340 330 331 323
109 99 93 99 93 65 61 40 20 13 345 5 358 2 357 342 345 335 347 336 348 334 345 348 348 350 357 352 359 1 356 350 340 340 337 337 343 348 348 349 347 346 335
102 101 100 90 56 53 55 43 32 340 32 20 12 1 352 358 356 355 350 344 351 354 356 354 354 355 359 357 359 359 2 357 346 342 337 339 350 353 351 352 352 354 352
114 105 110 99 59 42 53 54 352 23 31 30 10 360 354 360 359 359 356 0 359 3 2 359 357 354 356 356 358 354 358 1 355 348 348 350 350 350 350 352 356 355 353
120 120 109 92 59 38 46 30 4 8 43 29 9 0 2 358 358 1 1 5 13 11 9 7 3 357 358 357 355 354 355 358 356 349 343 344 349 355 355 353 353 349 346
110 110 107 100 69 48 51 26 26 50 42 33 11 8 2 359 360 1 7 12 350 17 13 8 359 359 359 358 2 4 2 3 357 350 353 359 360 357 354 351 349 344 345
118 103 103 98 46 60 47 36 42 54 48 36 16 9 3 3 2 356 353 4 13 19 24 20 11 4 5 4 5 5 7 10 7 5 5 358 355 353 349 347 343 343 343